Regional Weather Roundup
Issued by NWS

Home | Current Version | Previous Version | Graphics & Text | Print | Product List | Glossary On
Versions: 1 2 3 4 5 6 7 8 9 10 11 12 13 14 15 16 17 18 19 20 21 22 23 24 25 26 27 28 29 30 31 32 33 34 35 36 37 38 39 40 41 42 43 44 45 46 47 48 49 50
000
ASUS43 KLSX 172159
RWRMO

WEATHER SUMMARY FOR MISSOURI
NATIONAL WEATHER SERVICE SPRINGFIELD MO
500 PM CDT WED SEP 17 2014

NOTE: "FAIR" INDICATES FEW OR NO CLOUDS BELOW 12,000 FEET WITH NO
       SIGNIFICANT WEATHER AND/OR OBSTRUCTIONS TO VISIBILITY.
       CURRENT SKY AND/OR WEATHER CONDITIONS ARE NOT AVAILABLE FOR
       CHILLICOTHE AND FARMINGTON.

MOZ001>031-035>038-043-044-053-054-172300-
...NORTHERN AND WESTERN MISSOURI...

CITY           SKY/WX    TMP DP  RH WIND       PRES   REMARKS
KANSAS CTY INT PTSUNNY   73  66  78 SE6       29.91S
KANSAS C DTWN  CLOUDY    74  67  78 E5        29.89F
LEE`S SUMMIT   CLOUDY    72  67  84 NE6       29.90F
ST JOSEPH      PTSUNNY   78  66  66 S6        29.89S
KIRKSVILLE     CLOUDY    70  62  76 E7        29.93F

$$
MOZ066>068-077>081-088>096-101>105-172300-
...SOUTHWEST MISSOURI...

CITY           SKY/WX    TMP DP  RH WIND       PRES   REMARKS
SPRINGFIELD    PTSUNNY   68  64  87 S10       29.93R
JOPLIN         LGT RAIN  70  67  90 E6        29.88R

$$
MOZ032>034-039>042-045>050-055>058-069>072-172300-
...CENTRAL MISSOURI...

CITY           SKY/WX    TMP DP  RH WIND       PRES   REMARKS
COLUMBIA       CLOUDY    64  62  93 NE9       29.91F FOG
JEFFERSON CITY CLOUDY    69  64  84 NE8       29.90S
ROLLA          HAZE      67  62  84 CALM      29.91R VSB 1/4
SEDALIA        CLOUDY    73  67  81 N6        29.90F
WHITEMAN AFB   CLOUDY    72  68  88 N6        29.89F
OSAGE BEACH    PTSUNNY   75  64  69 NW3       29.89R

$$
MOZ051-052-059>065-172300-
...EAST CENTRAL MISSOURI...

CITY           SKY/WX    TMP DP  RH WIND       PRES   REMARKS
ST LOUIS INTL  CLOUDY    66  57  72 E7        29.94F
SPIRIT OF STL  CLOUDY    66  59  78 E8        29.91F
ST CHARLES     CLOUDY    62  57  83 NE9       29.93F

$$
MOZ072>076-082>087-097>100-106>115-172300-
...SOUTH CENTRAL AND SOUTHEAST MISSOURI...

CITY           SKY/WX    TMP DP  RH WIND       PRES   REMARKS
CAPE GIRARDEAU CLOUDY    66  58  75 S5        29.95F
FARMINGTON     CLOUDY    59  57  94 S7        29.97S
POPLAR BLUFF   CLOUDY    63  57  81 E3        29.94F
WEST PLAINS    PTSUNNY   65  60  84 SW8       29.94F

$$



USA.gov is the U.S. government's official web portal to all federal, state and local government web resources and services.